User: anonymous   Login
Location: Unspecified
(0.0000°N, 0.0000°E)
Time: 14:49:27
(UTC+00:00)
Language:

SMS 2 - Orbit

View from above orbital plane
View from above orbital plane
View from above satellite
View from above satellite

Ground track
Ground track

The orbit data is extracted from the following two-line orbital elements,

1  7648U 75011A   17205.66982914 -.00000351 +00000-0 +00000-0 0  9999
2  7648 012.7169 321.2811 0012685 186.2088 175.0937 00.99514332103402
Epoch (UTC): 24 July 2017 16:04:33
Eccentricity: 0.0012685
inclination: 12.7169°
perigee height: 35946 km
apogee height: 36053 km
right ascension of ascending node: 321.2811°
argument of perigee: 186.2088°
revolutions per day: 0.99514332
mean anomaly at epoch: 175.0937°
orbit number at epoch: 10340

The dashed part of the orbit path shows where the satellite is in the earth's shadow,  

DLR